ELECTRON R/B (47970 NORAD) Tracking and Keplerian Element Data

This shows tracking and keplerian element data for the satellite.

Feedback or suggestion? Click here.




ElementValue
Catalog47970
NameELECTRON R/B
Epoch Orbit447
Epoch Day110.8774868
Epoch Year2021
RAAN299.8529
Inclination45.008
Eccentricity0.0180996
Argument of Perigee50.6669
Mean Anonmoly311.0036
Mean Motion15.49459923
Decay Rate0.00074634
L11 47970U 21023F 21110.87748680 .00074634 10159-4 68715-3 0 9992
L22 47970 45.0080 299.8529 0180996 50.6669 311.0036 15.49459923 4475



Live tracking and technical data element details for ELECTRON R/B (NORAD 47970). ELECTRON R/B can be tracked NOW for your location showing map with azimuth and elevation plus other details from your city location.







IsCatalogInMostPopularTable: catalog: 47970, numindb: 105
Update: records affected: 1



GetName: 47970 ELECTRON R/B

Hit Count: updated at: Mon, 05 Jun 2023 00:11:21 GMT